Anita, PA

12:48 PM EDT on September 29, 2016 (GMT -0400)
Du Bois-Jefferson County

Weather History for KDUJ - October, 2011

Change the Weather History Date:

Wednesday, October 26, 2011

  Actual Average Record
Temperature  
Mean Temperature 51 °F 46 °F  
Max Temperature 59 °F 55 °F 76 °F (1963)
Min Temperature 43 °F 37 °F 24 °F (1962)
Degree Days  
Heating Degree Days 14 19  
Month to date heating degree days 207 397  
Since 1 July heating degree days 207 643  
Cooling Degree Days 0 0  
Month to date cooling degree days 0 0  
Year to date cooling degree days 0 360  
Moisture  
Dew Point 46 °F    
Average Humidity 75    
Maximum Humidity 93    
Minimum Humidity 56    
Precipitation  
Precipitation 0.26 in 0.10 in 1.10 in (1978)
Month to date precipitation 1.94 2.61  
Sea Level Pressure  
Sea Level Pressure 29.83 in    
Wind  
Wind Speed 7 mph (SW)    
Max Wind Speed 20 mph    
Max Gust Speed 30 mph    
Visibility 10 miles    
Events Rain    
T = Trace of Precipitation, MM = Missing Value Source: NWS Daily Summary

Daily Weather History Graph

Daily Weather History Graph

Search for Another Location

Airport or City:

Trip Planner

Search our weather history database for the weather conditions in past years. The results will help you decide how hot, cold, wet, or windy it might be!

Date:

Astronomy

Oct. 26, 2011 Rise Set
Actual Time 7:39 AM EDT 6:19 PM EDT
Civil Twilight 7:11 AM EDT 6:47 PM EDT
Nautical Twilight 6:38 AM EDT 7:19 PM EDT
Astronomical Twilight 6:06 AM EDT 7:51 PM EDT
Moon 7:25 AM EDT (10/26) 5:59 PM EDT (10/26)
Length of Visible Light 11h 36m
Length of Day
10h 39m
Waning Crescent, 0% of the Moon is Illuminated
Oct 26
Waning Crescent
Oct 26
New
Nov 2
First Quarter
Nov 10
Full
Nov 18
Last Quarter

Hourly Weather History & Observations

Time (EDT) Temp. Windchill Dew Point Humidity Pressure Visibility Wind Dir Wind Speed Gust Speed Precip Events Conditions
12:56 AM 50.0 °F - 35.1 °F 57% 29.96 in 10.0 mi SSW 4.6 mph - N/A   Clear
1:56 AM 48.0 °F - 37.0 °F 66% 29.93 in 10.0 mi Calm Calm - N/A   Mostly Cloudy
2:56 AM 48.9 °F - 36.0 °F 61% 29.91 in 10.0 mi Calm Calm - N/A   Clear
3:56 AM 44.1 °F 41.5 °F 37.0 °F 76% 29.90 in 10.0 mi NNE 4.6 mph - N/A   Partly Cloudy
4:56 AM 46.0 °F - 37.0 °F 71% 29.91 in 10.0 mi Calm Calm - N/A   Partly Cloudy
5:56 AM 48.9 °F - 37.9 °F 66% 29.90 in 10.0 mi West 3.5 mph - 0.00 in Rain Light Rain
6:56 AM 46.0 °F - 42.1 °F 86% 29.90 in 6.0 mi Calm Calm - 0.10 in Rain Light Rain
7:18 AM 46.4 °F 44.3 °F 42.8 °F 87% 29.89 in 10.0 mi South 4.6 mph - 0.01 in Rain Light Rain
7:49 AM 46.4 °F 44.3 °F 42.8 °F 87% 29.88 in 10.0 mi SSW 4.6 mph - 0.02 in Rain Light Rain
7:56 AM 46.9 °F - 43.0 °F 86% 29.88 in 10.0 mi South 6.9 mph - 0.02 in Rain Light Rain
8:25 AM 46.4 °F 42.9 °F 44.6 °F 93% 29.87 in 9.0 mi SSW 6.9 mph - 0.02 in Rain Light Rain
8:56 AM 48.0 °F - 44.1 °F 86% 29.87 in 10.0 mi SW 10.4 mph 17.3 mph 0.02 in   Overcast
9:52 AM 50.0 °F - 44.6 °F 82% 29.86 in 10.0 mi SW 10.4 mph - N/A   Overcast
9:56 AM 50.0 °F - 46.0 °F 86% 29.86 in 10.0 mi SW 9.2 mph - N/A   Overcast
10:56 AM 52.0 °F - 46.9 °F 83% 29.86 in 10.0 mi WSW 13.8 mph - N/A   Overcast
11:11 AM 51.8 °F - 46.4 °F 82% 29.86 in 10.0 mi WSW 13.8 mph 21.9 mph N/A   Overcast
11:56 AM 53.6 °F - 48.2 °F 82% 29.83 in 10.0 mi SW 9.2 mph - N/A   Overcast
12:42 PM 55.4 °F - 50.0 °F 82% 29.82 in 10.0 mi WSW 17.3 mph 23.0 mph N/A   Overcast
12:56 PM 57.0 °F - 50.0 °F 77% 29.81 in 10.0 mi WSW 17.3 mph - N/A   Overcast
1:56 PM 57.0 °F - 50.0 °F 77% 29.79 in 10.0 mi WSW 13.8 mph 29.9 mph N/A   Overcast
2:56 PM 57.2 °F - 50.0 °F 77% 29.77 in 10.0 mi SW 10.4 mph - N/A   Overcast
3:56 PM 57.0 °F - 50.0 °F 77% 29.78 in 10.0 mi WSW 10.4 mph - N/A   Overcast
4:46 PM 57.2 °F - 50.0 °F 77% 29.77 in 10.0 mi WSW 9.2 mph - N/A   Overcast
4:56 PM 57.0 °F - 50.0 °F 77% 29.78 in 10.0 mi WSW 9.2 mph - N/A   Overcast
5:48 PM 55.4 °F - 50.0 °F 82% 29.78 in 10.0 mi WSW 6.9 mph - 0.00 in   Overcast
5:56 PM 55.9 °F - 50.0 °F 80% 29.78 in 10.0 mi WSW 6.9 mph - 0.00 in   Overcast
6:56 PM 55.9 °F - 50.0 °F 80% 29.78 in 10.0 mi WSW 5.8 mph - N/A   Overcast
7:56 PM 55.9 °F - 50.0 °F 80% 29.78 in 10.0 mi WSW 8.1 mph - N/A   Overcast
8:56 PM 55.0 °F - 50.0 °F 83% 29.77 in 10.0 mi SW 10.4 mph - N/A   Overcast
9:56 PM 54.0 °F - 51.1 °F 90% 29.76 in 6.0 mi SSW 4.6 mph - N/A   Overcast
10:56 PM 55.0 °F - 51.1 °F 86% 29.73 in 10.0 mi Calm Calm - N/A   Overcast
11:56 PM 55.0 °F - 51.1 °F 86% 29.70 in 10.0 mi Variable 5.8 mph - N/A   Overcast